Location: Hylvaty SDH
(49.9612°N, 16.4057°E)
Time: 12:42:43
(UTC+01:00)

Tiros 1 - Pass Details

Date: 08 October 2020
Orbit: 630 x 663 km, 48.4° (Epoch: 28 October)

Event Time Altitude Azimuth Distance (km) Brightness Sun altitude
Rises 17:53:30 0° 281° (W) 2,965 12.0 2.9°
Reaches altitude 10° 17:56:18 10° 265° (W) 2,057 12.1 2.5°
Maximum altitude 17:59:49 21° 217° (SW) 1,471 9.8 1.9°
Drops below altitude 10° 18:03:21 10° 169° (S) 2,063 9.8 1.3°
Sets 18:06:10 0° 153° (SSE) 2,976 10.4 0.9°
